| time (UTC) | temp F | wind direction | speed knots | gust knots | rain 1hr in | rain 24hr in | rain mn in | humidity % | barometer mb |
| 20260906073110 | 71 | 264 | 0.0 | 0.0 | 0.00 | 0.00 | 0.00 | 99 | 1013.2 |
| 20260906072605 | 71 | 264 | 0.0 | 0.0 | 0.00 | 0.00 | 0.00 | 99 | 1013.2 |
| 20260906072101 | 71 | 265 | 0.0 | 0.0 | 0.00 | 0.00 | 0.00 | 99 | 1013.0 |
| 20260906071557 | 71 | 274 | 0.0 | 0.0 | 0.00 | 0.00 | 0.00 | 99 | 1012.9 |
| 20260906071051 | 71 | 290 | 0.0 | 0.0 | 0.00 | 0.00 | 0.00 | 99 | 1012.9 |
| 20260906070548 | 71 | 272 | 0.0 | 0.0 | 0.00 | 0.00 | 0.00 | 99 | 1013.0 |
| 20260906070043 | 71 | 310 | 0.0 | 0.0 | 0.00 | 0.00 | 0.00 | 99 | 1013.2 |
| 20260906065542 | 72 | 276 | 0.0 | 0.0 | 0.00 | 0.00 | 0.00 | 99 | 1012.8 |
| 20260906065039 | 72 | 278 | 0.0 | 0.0 | 0.00 | 0.00 | 0.00 | 99 | 1012.9 |
| 20260906064534 | 72 | 257 | 0.0 | 0.9 | 0.00 | 0.00 | 0.00 | 99 | 1013.0 |
| 20260906064029 | 72 | 280 | 0.0 | 0.0 | 0.00 | 0.00 | 0.00 | 99 | 1013.0 |
| 20260906063524 | 72 | 269 | 0.0 | 0.0 | 0.00 | 0.00 | 0.00 | 99 | 1013.0 |
| 20260906063020 | 71 | 287 | 0.0 | 0.9 | 0.00 | 0.00 | 0.00 | 99 | 1013.1 |
| 20260906062509 | 71 | 276 | 0.0 | 0.0 | 0.00 | 0.00 | 0.00 | 99 | 1013.2 |
| 20260906062004 | 71 | 277 | 0.0 | 0.0 | 0.00 | 0.00 | 0.00 | 99 | 1012.9 |
| 20260906061500 | 71 | 283 | 0.0 | 0.0 | 0.00 | 0.00 | 0.00 | 99 | 1013.2 |
| 20260906060954 | 71 | 291 | 0.0 | 0.0 | 0.00 | 0.00 | 0.00 | 99 | 1013.1 |
| 20260906060451 | 71 | 277 | 0.0 | 0.9 | 0.00 | 0.00 | 0.00 | 99 | 1013.2 |
| 20260906055947 | 71 | 286 | 0.0 | 0.0 | 0.00 | 0.00 | 0.00 | 99 | 1013.2 |
| 20260906055443 | 71 | 289 | 0.0 | 0.0 | 0.00 | 0.00 | 0.00 | 99 | 1013.2 |
| 20260906054938 | 71 | 281 | 0.0 | 0.0 | 0.00 | 0.00 | 0.00 | 99 | 1013.5 |
| 20260906054433 | 72 | 279 | 0.0 | 0.0 | 0.00 | 0.00 | 0.00 | 99 | 1013.4 |
| 20260906053928 | 72 | 294 | 0.0 | 0.0 | 0.00 | 0.00 | 0.00 | 99 | 1013.3 |
| 20260906053424 | 72 | 296 | 0.0 | 0.0 | 0.00 | 0.00 | 0.00 | 99 | 1013.4 |
| 20260906052920 | 72 | 274 | 0.0 | 0.0 | 0.00 | 0.00 | 0.00 | 99 | 1013.3 |
| 20260906052416 | 72 | 267 | 0.0 | 0.0 | 0.00 | 0.00 | 0.00 | 99 | 1013.5 |
| 20260906051913 | 72 | 276 | 0.0 | 0.0 | 0.00 | 0.00 | 0.00 | 99 | 1013.5 |
| 20260906051413 | 72 | 303 | 0.0 | 0.0 | 0.00 | 0.00 | 0.00 | 99 | 1013.4 |
| 20260906050908 | 72 | 344 | 0.0 | 0.9 | 0.00 | 0.00 | 0.00 | 99 | 1013.4 |
| 20260906050403 | 72 | 340 | 0.0 | 0.0 | 0.00 | 0.00 | 0.00 | 99 | 1013.5 |
| 20260906045902 | 72 | 10 | 0.0 | 0.9 | 0.00 | 0.00 | 0.00 | 99 | 1013.6 |
| 20260906045401 | 71 | 294 | 0.0 | 1.7 | 0.00 | 0.00 | 0.00 | 99 | 1013.6 |
| 20260906044857 | 71 | 288 | 0.0 | 0.0 | 0.00 | 0.00 | 0.00 | 99 | 1013.6 |
| 20260906044351 | 71 | 283 | 0.0 | 0.0 | 0.00 | 0.00 | 0.00 | 99 | 1013.7 |
| 20260906043847 | 71 | 277 | 0.0 | 0.0 | 0.00 | 0.00 | 0.00 | 99 | 1013.7 |
| 20260906043343 | 71 | 283 | 0.0 | 1.7 | 0.00 | 0.00 | 0.00 | 99 | 1013.6 |
| 20260906042838 | 71 | 278 | 0.0 | 0.0 | 0.00 | 0.00 | 0.00 | 99 | 1013.8 |
| 20260906042337 | 71 | 278 | 0.0 | 0.0 | 0.00 | 0.00 | 0.00 | 99 | 1013.8 |
| 20260906041832 | 71 | 269 | 0.0 | 0.0 | 0.00 | 0.00 | 0.00 | 99 | 1013.8 |
| 20260906041329 | 71 | 279 | 0.0 | 0.0 | 0.00 | 0.00 | 0.00 | 99 | 1013.5 |
| 20260906040828 | 71 | 276 | 0.0 | 0.0 | 0.00 | 0.00 | 0.00 | 99 | 1013.3 |
| 20260906040323 | 71 | 276 | 0.0 | 0.0 | 0.00 | 0.00 | 0.00 | 99 | 1013.6 |
| 20260906035819 | 71 | 267 | 0.0 | 0.0 | 0.00 | 0.42 | 0.42 | 99 | 1013.7 |
| 20260906035314 | 71 | 266 | 0.0 | 0.0 | 0.00 | 0.42 | 0.42 | 99 | 1013.8 |
| 20260906034809 | 71 | 267 | 0.0 | 0.0 | 0.00 | 0.42 | 0.42 | 99 | 1013.7 |
| 20260906034309 | 71 | 264 | 0.0 | 0.0 | 0.00 | 0.42 | 0.42 | 99 | 1013.7 |
| 20260906033805 | 71 | 264 | 0.0 | 0.0 | 0.00 | 0.42 | 0.42 | 99 | 1013.9 |
| 20260906033304 | 71 | 274 | 0.0 | 0.0 | 0.00 | 0.42 | 0.42 | 99 | 1013.7 |
| 20260906032801 | 71 | 272 | 0.0 | 0.0 | 0.00 | 0.42 | 0.42 | 99 | 1013.8 |
| 20260906032256 | 71 | 270 | 0.0 | 0.0 | 0.00 | 0.42 | 0.42 | 99 | 1013.9 |
| 20260906031751 | 71 | 279 | 0.0 | 0.0 | 0.00 | 0.42 | 0.42 | 99 | 1013.8 |
| 20260906031247 | 71 | 286 | 0.0 | 0.0 | 0.00 | 0.42 | 0.42 | 99 | 1013.8 |
| 20260906030746 | 71 | 275 | 0.0 | 0.0 | 0.00 | 0.42 | 0.42 | 99 | 1013.7 |
| 20260906030242 | 71 | 258 | 0.0 | 0.0 | 0.00 | 0.42 | 0.42 | 99 | 1013.9 |
| 20260906025741 | 72 | 259 | 0.0 | 0.0 | 0.00 | 0.42 | 0.42 | 99 | 1013.9 |
| 20260906025235 | 71 | 264 | 0.0 | 0.0 | 0.00 | 0.42 | 0.42 | 99 | 1013.9 |
| 20260906024734 | 72 | 264 | 0.0 | 0.0 | 0.00 | 0.42 | 0.42 | 99 | 1013.7 |
| 20260906024234 | 72 | 274 | 0.0 | 0.0 | 0.00 | 0.42 | 0.42 | 99 | 1013.7 |
| 20260906023730 | 72 | 272 | 0.0 | 0.0 | 0.00 | 0.42 | 0.42 | 99 | 1013.7 |
| 20260906023225 | 72 | 271 | 0.0 | 0.0 | 0.00 | 0.42 | 0.42 | 99 | 1013.7 |
| 20260906022721 | 72 | 277 | 0.0 | 0.0 | 0.00 | 0.42 | 0.42 | 99 | 1013.6 |
| 20260906022216 | 72 | 279 | 0.0 | 0.0 | 0.00 | 0.42 | 0.42 | 99 | 1013.7 |
| 20260906021712 | 72 | 275 | 0.0 | 0.0 | 0.00 | 0.42 | 0.42 | 99 | 1013.8 |
| 20260906021210 | 72 | 275 | 0.0 | 0.0 | 0.00 | 0.42 | 0.42 | 99 | 1013.6 |
| 20260906020705 | 73 | 275 | 0.0 | 0.0 | 0.00 | 0.42 | 0.42 | 99 | 1013.8 |
| 20260906020159 | 73 | 276 | 0.0 | 0.0 | 0.00 | 0.42 | 0.42 | 99 | 1013.8 |
| 20260906015654 | 73 | 276 | 0.0 | 0.0 | 0.00 | 0.42 | 0.42 | 98 | 1013.7 |
| 20260906015152 | 73 | 276 | 0.0 | 0.0 | 0.00 | 0.42 | 0.42 | 98 | 1013.6 |
| 20260906014647 | 73 | 277 | 0.0 | 0.0 | 0.00 | 0.42 | 0.42 | 98 | 1013.4 |
| 20260906014143 | 73 | 276 | 0.0 | 0.0 | 0.00 | 0.42 | 0.42 | 98 | 1013.5 |
| 20260906013638 | 74 | 276 | 0.0 | 0.0 | 0.00 | 0.42 | 0.42 | 98 | 1013.4 |
| 20260906013134 | 74 | 276 | 0.0 | 0.0 | 0.00 | 0.42 | 0.42 | 98 | 1013.3 |
| 20260906012628 | 74 | 276 | 0.0 | 0.0 | 0.00 | 0.42 | 0.42 | 98 | 1013.4 |
| 20260906012123 | 74 | 277 | 0.0 | 0.0 | 0.00 | 0.42 | 0.42 | 97 | 1013.1 |
| 20260906011618 | 74 | 277 | 0.0 | 0.0 | 0.00 | 0.42 | 0.42 | 97 | 1013.4 |
| 20260906011113 | 74 | 277 | 0.0 | 0.0 | 0.00 | 0.42 | 0.42 | 97 | 1013.3 |
| 20260906010608 | 74 | 296 | 0.0 | 0.0 | 0.00 | 0.42 | 0.42 | 97 | 1013.2 |
| 20260906010104 | 74 | 260 | 0.0 | 0.0 | 0.00 | 0.42 | 0.42 | 96 | 1013.1 |
| 20260906005603 | 74 | 262 | 0.0 | 0.0 | 0.00 | 0.42 | 0.42 | 96 | 1013.0 |
| 20260906005102 | 74 | 262 | 0.0 | 0.0 | 0.00 | 0.42 | 0.42 | 96 | 1012.9 |
| 20260906004556 | 74 | 260 | 0.0 | 0.0 | 0.00 | 0.42 | 0.42 | 96 | 1012.8 |
| 20260906004052 | 74 | 259 | 0.0 | 0.0 | 0.00 | 0.42 | 0.42 | 96 | 1012.7 |
| 20260906003547 | 74 | 272 | 0.0 | 0.0 | 0.00 | 0.42 | 0.42 | 96 | 1012.8 |
| 20260906003043 | 75 | 272 | 0.0 | 0.0 | 0.00 | 0.42 | 0.42 | 96 | 1012.7 |
| 20260906002543 | 75 | 256 | 0.0 | 0.0 | 0.00 | 0.42 | 0.42 | 96 | 1012.4 |
| 20260906002037 | 75 | 270 | 0.0 | 0.0 | 0.00 | 0.42 | 0.42 | 96 | 1012.5 |
| 20260906001533 | 75 | 280 | 0.0 | 0.0 | 0.00 | 0.42 | 0.42 | 95 | 1012.7 |
| 20260906001027 | 75 | 277 | 0.0 | 0.0 | 0.00 | 0.42 | 0.42 | 95 | 1012.4 |
| 20260906000524 | 75 | 271 | 0.0 | 0.0 | 0.00 | 0.42 | 0.42 | 94 | 1012.4 |
| 20260906000018 | 75 | 270 | 0.0 | 0.0 | 0.00 | 0.42 | 0.42 | 94 | 1012.2 |
| 20260905235512 | 75 | 259 | 0.0 | 0.0 | 0.00 | 0.42 | 0.42 | 93 | 1012.0 |
| 20260905235007 | 75 | 258 | 0.0 | 0.0 | 0.00 | 0.42 | 0.42 | 94 | 1012.1 |
| 20260905234502 | 75 | 262 | 0.0 | 0.0 | 0.00 | 0.42 | 0.42 | 92 | 1012.1 |
| 20260905233956 | 75 | 265 | 0.0 | 0.0 | 0.00 | 0.42 | 0.42 | 92 | 1012.0 |
| 20260905233452 | 76 | 277 | 0.0 | 0.0 | 0.00 | 0.42 | 0.42 | 91 | 1012.0 |
| 20260905232950 | 76 | 296 | 0.0 | 0.0 | 0.00 | 0.42 | 0.42 | 91 | 1011.9 |
| 20260905232447 | 76 | 273 | 0.0 | 0.0 | 0.00 | 0.42 | 0.42 | 91 | 1011.8 |
| 20260905231943 | 76 | 343 | 0.0 | 0.0 | 0.00 | 0.42 | 0.42 | 90 | 1012.0 |
| 20260905231438 | 76 | 302 | 0.0 | 0.0 | 0.00 | 0.42 | 0.42 | 90 | 1012.1 |
| 20260905230934 | 77 | 273 | 0.0 | 0.0 | 0.00 | 0.42 | 0.42 | 90 | 1012.2 |
| 20260905230433 | 77 | 309 | 0.0 | 0.0 | 0.00 | 0.42 | 0.42 | 89 | 1012.1 |
| 20260905225931 | 77 | 262 | 0.0 | 0.0 | 0.00 | 0.42 | 0.42 | 88 | 1012.4 |
| 20260905225427 | 77 | 274 | 0.0 | 0.9 | 0.00 | 0.42 | 0.42 | 88 | 1012.3 |
| 20260905224921 | 78 | 5 | 0.0 | 0.9 | 0.00 | 0.42 | 0.42 | 87 | 1012.3 |
| 20260905224418 | 78 | 290 | 0.9 | 1.7 | 0.00 | 0.42 | 0.42 | 87 | 1012.4 |
| 20260905223917 | 78 | 288 | 0.0 | 0.0 | 0.00 | 0.42 | 0.42 | 88 | 1012.2 |
| 20260905223415 | 78 | 312 | 0.9 | 1.7 | 0.00 | 0.42 | 0.42 | 88 | 1012.1 |
| 20260905222915 | 78 | 308 | 0.0 | 0.9 | 0.00 | 0.42 | 0.42 | 89 | 1012.4 |
| 20260905222414 | 78 | 254 | 0.0 | 0.0 | 0.00 | 0.42 | 0.42 | 89 | 1012.3 |
| 20260905221910 | 78 | 273 | 0.0 | 0.0 | 0.00 | 0.42 | 0.42 | 88 | 1012.0 |
| 20260905221406 | 78 | 296 | 0.0 | 0.0 | 0.00 | 0.42 | 0.42 | 88 | 1012.1 |
| 20260905220856 | 78 | 290 | 0.0 | 0.9 | 0.00 | 0.42 | 0.42 | 87 | 1012.2 |
| 20260905220352 | 79 | 256 | 0.0 | 0.0 | 0.00 | 0.42 | 0.42 | 87 | 1012.1 |
| 20260905215852 | 79 | 273 | 0.0 | 0.9 | 0.00 | 0.42 | 0.42 | 86 | 1011.9 |
| 20260905215348 | 80 | 263 | 0.0 | 0.0 | 0.00 | 0.42 | 0.42 | 84 | 1011.8 |
| 20260905214844 | 80 | 263 | 0.0 | 0.0 | 0.00 | 0.42 | 0.42 | 84 | 1011.9 |
| 20260905214339 | 80 | 260 | 0.0 | 0.0 | 0.00 | 0.42 | 0.42 | 85 | 1012.2 |
| 20260905213833 | 79 | 271 | 0.0 | 0.9 | 0.00 | 0.42 | 0.42 | 87 | 1012.2 |
| 20260905213330 | 78 | 286 | 0.0 | 0.0 | 0.00 | 0.42 | 0.42 | 88 | 1012.1 |
| 20260905212825 | 78 | 308 | 0.0 | 0.0 | 0.00 | 0.42 | 0.42 | 89 | 1012.2 |
| 20260905212324 | 77 | 321 | 0.9 | 0.9 | 0.00 | 0.42 | 0.42 | 89 | 1012.1 |
| 20260905211819 | 78 | 108 | 0.0 | 1.7 | 0.00 | 0.42 | 0.42 | 88 | 1012.1 |
| 20260905211314 | 77 | 220 | 0.0 | 0.9 | 0.00 | 0.42 | 0.42 | 89 | 1012.2 |
| 20260905210811 | 76 | 317 | 0.9 | 2.6 | 0.00 | 0.42 | 0.42 | 96 | 1012.5 |
| 20260905210310 | 75 | 298 | 0.0 | 0.9 | 0.00 | 0.42 | 0.42 | 99 | 1012.3 |
| 20260905205809 | 75 | 247 | 0.0 | 0.9 | 0.00 | 0.42 | 0.42 | 99 | 1012.3 |
| 20260905205306 | 75 | 253 | 0.0 | 0.0 | 0.00 | 0.42 | 0.42 | 99 | 1012.5 |
| 20260905204803 | 74 | 276 | 0.9 | 0.9 | 0.00 | 0.42 | 0.42 | 99 | 1012.4 |
| 20260905204300 | 74 | 288 | 0.0 | 0.9 | 0.00 | 0.42 | 0.42 | 99 | 1012.3 |
| 20260905203758 | 74 | 278 | 0.0 | 0.0 | 0.00 | 0.42 | 0.42 | 99 | 1012.5 |
| 20260905203254 | 73 | 258 | 0.0 | 0.0 | 0.00 | 0.42 | 0.42 | 99 | 1012.3 |
| 20260905202750 | 73 | 251 | 0.0 | 0.0 | 0.00 | 0.42 | 0.42 | 99 | 1012.2 |
| 20260905202244 | 73 | 249 | 0.0 | 0.9 | 0.00 | 0.42 | 0.42 | 99 | 1012.0 |
| 20260905201740 | 74 | 230 | 0.0 | 0.9 | 0.00 | 0.42 | 0.42 | 99 | 1012.2 |
| 20260905201235 | 73 | 228 | 0.0 | 0.9 | 0.00 | 0.42 | 0.42 | 99 | 1012.0 |
| 20260905200730 | 74 | 237 | 0.0 | 0.0 | 0.00 | 0.42 | 0.42 | 99 | 1011.8 |
| 20260905200226 | 73 | 250 | 0.0 | 0.0 | 0.00 | 0.42 | 0.42 | 99 | 1012.2 |
| 20260905195218 | 73 | 284 | 0.0 | 0.0 | 0.00 | 0.42 | 0.42 | 99 | 1012.3 |
| 20260905194714 | 73 | 286 | 0.0 | 0.0 | 0.00 | 0.42 | 0.42 | 99 | 1012.4 |
| 20260905194214 | 74 | 255 | 0.0 | 0.0 | 0.00 | 0.42 | 0.42 | 99 | 1012.7 |
| 20260905193708 | 74 | 260 | 0.0 | 0.0 | 0.00 | 0.42 | 0.42 | 99 | 1012.7 |
| 20260905193203 | 73 | 272 | 0.0 | 0.0 | 0.00 | 0.42 | 0.42 | 99 | 1012.7 |
| 20260905192659 | 73 | 256 | 0.0 | 1.7 | 0.05 | 0.42 | 0.42 | 99 | 1012.6 |
| 20260905192155 | 73 | 279 | 0.0 | 0.9 | 0.05 | 0.42 | 0.42 | 99 | 1012.7 |
| 20260905191654 | 74 | 263 | 0.0 | 0.9 | 0.00 | 0.41 | 0.41 | 99 | 1012.7 |
| 20260905191152 | 74 | 269 | 0.0 | 0.0 | 0.00 | 0.41 | 0.41 | 99 | 1013.0 |
| 20260905190651 | 73 | 264 | 0.0 | 0.9 | 0.00 | 0.41 | 0.41 | 99 | 1013.1 |
| 20260905190149 | 73 | 243 | 0.9 | 0.9 | 0.07 | 0.41 | 0.41 | 99 | 1013.2 |
| 20260905185649 | 74 | 264 | 0.0 | 0.0 | 0.07 | 0.41 | 0.41 | 99 | 1013.1 |
| 20260905185143 | 74 | 264 | 0.0 | 0.0 | 0.00 | 0.40 | 0.40 | 99 | 1012.9 |
| 20260905184638 | 74 | 259 | 0.0 | 0.0 | 0.00 | 0.40 | 0.40 | 99 | 1012.9 |
| 20260905184137 | 73 | 263 | 0.0 | 0.0 | 0.00 | 0.40 | 0.40 | 99 | 1012.9 |
| 20260905183636 | 73 | 263 | 0.0 | 0.0 | 0.00 | 0.40 | 0.40 | 99 | 1013.1 |
| 20260905183132 | 73 | 250 | 0.0 | 0.0 | 0.00 | 0.40 | 0.40 | 99 | 1012.8 |
| 20260905182631 | 73 | 235 | 0.0 | 0.9 | 0.00 | 0.40 | 0.40 | 99 | 1012.5 |
| 20260905182131 | 74 | 168 | 0.9 | 0.9 | 0.00 | 0.40 | 0.40 | 99 | 1012.6 |
| 20260905181626 | 74 | 260 | 0.0 | 0.9 | 0.00 | 0.40 | 0.40 | 99 | 1012.8 |
| 20260905181125 | 74 | 226 | 0.0 | 1.7 | 0.00 | 0.40 | 0.40 | 99 | 1012.9 |
| 20260905180620 | 73 | 223 | 0.0 | 0.9 | 0.00 | 0.40 | 0.40 | 99 | 1013.1 |
| 20260905180115 | 73 | 235 | 0.0 | 1.7 | 0.00 | 0.40 | 0.40 | 99 | 1013.1 |
| 20260905175614 | 74 | 237 | 0.0 | 0.9 | 0.00 | 0.40 | 0.40 | 99 | 1013.3 |
| 20260905175109 | 73 | 297 | 0.9 | 0.9 | 0.00 | 0.40 | 0.40 | 99 | 1013.7 |
| 20260905174605 | 74 | 301 | 0.9 | 1.7 | 0.00 | 0.40 | 0.40 | 99 | 1013.7 |
| 20260905174101 | 73 | 185 | 0.0 | 2.6 | 0.00 | 0.40 | 0.40 | 99 | 1013.6 |
| 20260905173557 | 73 | 270 | 0.0 | 2.6 | 0.00 | 0.40 | 0.40 | 99 | 1013.3 |
| 20260905173052 | 73 | 256 | 0.0 | 0.9 | 0.00 | 0.40 | 0.40 | 99 | 1013.6 |
| 20260905172551 | 73 | 284 | 0.0 | 0.9 | 0.00 | 0.40 | 0.40 | 99 | 1013.7 |
| 20260905172047 | 73 | 206 | 0.9 | 1.7 | 0.05 | 0.40 | 0.40 | 99 | 1013.6 |
| 20260905171543 | 73 | 224 | 0.0 | 0.0 | 0.12 | 0.40 | 0.40 | 99 | 1013.9 |
| 20260905171038 | 73 | 265 | 2.6 | 5.2 | 0.31 | 0.39 | 0.39 | 99 | 1014.2 |
| 20260905170535 | 74 | 204 | 0.9 | 1.7 | 0.47 | 0.38 | 0.38 | 99 | 1014.6 |
| 20260905170030 | 74 | 9 | 1.7 | 2.6 | 0.66 | 0.33 | 0.33 | 99 | 1015.0 |
| 20260905165524 | 75 | 250 | 0.9 | 1.7 | 1.18 | 0.29 | 0.29 | 99 | 1014.7 |
| 20260905165020 | 76 | 260 | 0.0 | 2.6 | 1.09 | 0.22 | 0.22 | 98 | 1014.8 |
| 20260905164514 | 77 | 256 | 0.0 | 0.0 | 0.50 | 0.09 | 0.09 | 97 | 1014.5 |
| 20260905164009 | 78 | 247 | 0.0 | 0.9 | 0.24 | 0.04 | 0.04 | 93 | 1014.1 |
| 20260905163505 | 79 | 239 | 0.0 | 0.0 | 0.05 | 0.01 | 0.01 | 88 | 1014.0 |
| 20260905163000 | 80 | 249 | 0.9 | 2.6 | 0.00 | 0.00 | 0.00 | 85 | 1014.3 |
| 20260905162456 | 81 | 327 | 0.0 | 0.0 | 0.00 | 0.00 | 0.00 | 84 | 1013.9 |
| 20260905161951 | 81 | 294 | 0.9 | 0.9 | 0.00 | 0.00 | 0.00 | 82 | 1013.7 |
| 20260905161450 | 82 | 321 | 1.7 | 1.7 | 0.00 | 0.00 | 0.00 | 81 | 1013.9 |
| 20260905160948 | 83 | 268 | 0.9 | 3.5 | 0.00 | 0.00 | 0.00 | 79 | 1013.7 |
| 20260905160442 | 84 | 259 | 0.0 | 1.7 | 0.00 | 0.00 | 0.00 | 77 | 1013.6 |
| 20260905155942 | 84 | 294 | 2.6 | 3.5 | 0.00 | 0.00 | 0.00 | 77 | 1013.5 |
| 20260905155437 | 84 | 291 | 2.6 | 2.6 | 0.00 | 0.00 | 0.00 | 77 | 1013.4 |
| 20260905154935 | 84 | 307 | 1.7 | 5.2 | 0.00 | 0.00 | 0.00 | 78 | 1013.3 |
| 20260905154431 | 84 | 1 | 0.9 | 1.7 | 0.00 | 0.00 | 0.00 | 76 | 1013.3 |
| 20260905153926 | 84 | 301 | 0.9 | 1.7 | 0.00 | 0.00 | 0.00 | 78 | 1013.3 |
| 20260905153423 | 84 | 26 | 0.9 | 3.5 | 0.00 | 0.00 | 0.00 | 78 | 1013.7 |
| 20260905152922 | 83 | 300 | 0.9 | 3.5 | 0.00 | 0.00 | 0.00 | 78 | 1013.5 |
| 20260905152422 | 84 | 283 | 0.0 | 0.9 | 0.00 | 0.00 | 0.00 | 78 | 1013.7 |
| 20260905151917 | 84 | 321 | 0.9 | 1.7 | 0.00 | 0.00 | 0.00 | 77 | 1013.6 |
| 20260905151412 | 84 | 38 | 0.9 | 5.2 | 0.00 | 0.00 | 0.00 | 78 | 1013.5 |
| 20260905150907 | 84 | 286 | 1.7 | 6.1 | 0.00 | 0.00 | 0.00 | 76 | 1013.7 |
| 20260905150407 | 85 | 266 | 0.0 | 2.6 | 0.00 | 0.00 | 0.00 | 78 | 1013.5 |
| 20260905145904 | 84 | 184 | 0.0 | 0.9 | 0.00 | 0.00 | 0.00 | 79 | 1013.6 |
| 20260905145358 | 84 | 343 | 0.9 | 6.1 | 0.00 | 0.00 | 0.00 | 78 | 1013.5 |
| 20260905144858 | 84 | 160 | 0.9 | 6.1 | 0.00 | 0.00 | 0.00 | 77 | 1013.6 |
| 20260905144353 | 84 | 81 | 0.0 | 2.6 | 0.00 | 0.00 | 0.00 | 79 | 1013.5 |
| 20260905143852 | 84 | 300 | 1.7 | 7.0 | 0.00 | 0.00 | 0.00 | 78 | 1013.6 |
| 20260905143346 | 83 | 180 | 1.7 | 3.5 | 0.00 | 0.00 | 0.00 | 79 | 1013.5 |
| 20260905142846 | 82 | 1 | 2.6 | 3.5 | 0.00 | 0.00 | 0.00 | 79 | 1013.7 |
| 20260905142344 | 82 | 20 | 0.9 | 1.7 | 0.00 | 0.00 | 0.00 | 80 | 1013.8 |
| 20260905141841 | 82 | 241 | 0.9 | 5.2 | 0.00 | 0.00 | 0.00 | 81 | 1013.8 |
| 20260905141336 | 81 | 7 | 4.3 | 5.2 | 0.00 | 0.00 | 0.00 | 81 | 1013.5 |
| 20260905140832 | 81 | 78 | 1.7 | 2.6 | 0.00 | 0.00 | 0.00 | 82 | 1013.5 |
| 20260905140332 | 80 | 276 | 1.7 | 3.5 | 0.00 | 0.00 | 0.00 | 83 | 1013.3 |
| 20260905135830 | 82 | 85 | 1.7 | 2.6 | 0.00 | 0.00 | 0.00 | 82 | 1013.2 |
| 20260905135326 | 81 | 268 | 0.9 | 0.9 | 0.00 | 0.00 | 0.00 | 84 | 1013.5 |
| 20260905134821 | 80 | 335 | 0.0 | 0.9 | 0.00 | 0.00 | 0.00 | 86 | 1013.3 |
| 20260905134314 | 80 | 259 | 0.0 | 0.9 | 0.00 | 0.00 | 0.00 | 87 | 1013.3 |
| 20260905133809 | 78 | 325 | 1.7 | 6.1 | 0.00 | 0.00 | 0.00 | 88 | 1013.3 |
| 20260905133305 | 76 | 37 | 0.9 | 2.6 | 0.00 | 0.00 | 0.00 | 99 | 1013.2 |
| 20260905132803 | 76 | 294 | 0.0 | 0.9 | 0.00 | 0.00 | 0.00 | 99 | 1013.1 |
| 20260905132259 | 75 | 130 | 0.0 | 1.7 | 0.00 | 0.00 | 0.00 | 99 | 1013.3 |
| 20260905131754 | 74 | 359 | 1.7 | 1.7 | 0.00 | 0.00 | 0.00 | 99 | 1013.4 |
| 20260905131249 | 73 | 281 | 0.0 | 1.7 | 0.00 | 0.00 | 0.00 | 99 | 1013.0 |
| 20260905130744 | 74 | 5 | 0.9 | 1.7 | 0.00 | 0.00 | 0.00 | 99 | 1012.9 |
| 20260905130243 | 73 | 328 | 0.0 | 1.7 | 0.00 | 0.00 | 0.00 | 99 | 1012.9 |
| 20260905125738 | 73 | 288 | 0.9 | 0.9 | 0.00 | 0.00 | 0.00 | 99 | 1013.0 |
| 20260905125233 | 73 | 274 | 0.0 | 1.7 | 0.00 | 0.00 | 0.00 | 99 | 1013.0 |
| 20260905124730 | 74 | 355 | 0.0 | 0.0 | 0.00 | 0.00 | 0.00 | 99 | 1013.2 |
| 20260905124226 | 73 | 261 | 0.0 | 0.0 | 0.00 | 0.00 | 0.00 | 99 | 1013.1 |
| 20260905123720 | 74 | 246 | 0.0 | 0.9 | 0.00 | 0.00 | 0.00 | 99 | 1013.2 |
| 20260905123218 | 73 | 245 | 0.0 | 0.9 | 0.00 | 0.00 | 0.00 | 99 | 1013.3 |
| 20260905122717 | 73 | 285 | 0.0 | 0.0 | 0.00 | 0.00 | 0.00 | 99 | 1013.3 |
| 20260905122211 | 72 | 241 | 0.0 | 0.9 | 0.00 | 0.00 | 0.00 | 99 | 1013.2 |
| 20260905121706 | 72 | 260 | 0.0 | 0.0 | 0.00 | 0.00 | 0.00 | 99 | 1013.2 |
| 20260905121203 | 72 | 337 | 0.9 | 0.9 | 0.00 | 0.00 | 0.00 | 99 | 1013.2 |
| 20260905120701 | 73 | 334 | 0.9 | 1.7 | 0.00 | 0.00 | 0.00 | 99 | 1013.2 |
| 20260905120156 | 72 | 272 | 0.0 | 0.9 | 0.00 | 0.00 | 0.00 | 99 | 1013.2 |
| 20260905115656 | 71 | 268 | 0.0 | 0.0 | 0.00 | 0.00 | 0.00 | 99 | 1013.4 |
| 20260905115151 | 71 | 267 | 0.0 | 0.0 | 0.00 | 0.00 | 0.00 | 99 | 1013.3 |
| 20260905114651 | 71 | 265 | 0.0 | 0.0 | 0.00 | 0.00 | 0.00 | 99 | 1013.2 |
| 20260905114149 | 70 | 265 | 0.0 | 0.0 | 0.00 | 0.00 | 0.00 | 99 | 1012.9 |
| 20260905113649 | 70 | 265 | 0.0 | 0.0 | 0.00 | 0.00 | 0.00 | 99 | 1013.0 |
| 20260905113145 | 70 | 265 | 0.0 | 0.0 | 0.00 | 0.00 | 0.00 | 99 | 1013.1 |
| 20260905112639 | 70 | 265 | 0.0 | 0.0 | 0.00 | 0.00 | 0.00 | 99 | 1013.0 |
| 20260905112135 | 69 | 253 | 0.0 | 0.0 | 0.00 | 0.00 | 0.00 | 99 | 1013.0 |
| 20260905111634 | 69 | 253 | 0.0 | 0.0 | 0.00 | 0.00 | 0.00 | 99 | 1013.0 |
| 20260905111134 | 69 | 249 | 0.0 | 0.0 | 0.00 | 0.00 | 0.00 | 99 | 1013.0 |
| 20260905110633 | 69 | 249 | 0.0 | 0.0 | 0.00 | 0.00 | 0.00 | 99 | 1013.0 |
| 20260905110128 | 69 | 249 | 0.0 | 0.0 | 0.00 | 0.00 | 0.00 | 99 | 1012.9 |
| 20260905105624 | 69 | 250 | 0.0 | 0.0 | 0.00 | 0.00 | 0.00 | 99 | 1013.0 |
| 20260905105122 | 69 | 251 | 0.0 | 0.0 | 0.00 | 0.00 | 0.00 | 99 | 1013.0 |
| 20260905104618 | 69 | 255 | 0.0 | 0.0 | 0.00 | 0.00 | 0.00 | 99 | 1012.8 |
| 20260905104113 | 69 | 258 | 0.0 | 0.0 | 0.00 | 0.00 | 0.00 | 99 | 1012.8 |
| 20260905103609 | 69 | 258 | 0.0 | 0.0 | 0.00 | 0.00 | 0.00 | 99 | 1012.8 |
| 20260905103104 | 69 | 258 | 0.0 | 0.0 | 0.00 | 0.00 | 0.00 | 99 | 1012.4 |
| 20260905102554 | 69 | 258 | 0.0 | 0.0 | 0.00 | 0.00 | 0.00 | 99 | 1012.5 |
| 20260905102051 | 69 | 258 | 0.0 | 0.0 | 0.00 | 0.00 | 0.00 | 99 | 1012.3 |
| 20260905101549 | 69 | 259 | 0.0 | 0.0 | 0.00 | 0.00 | 0.00 | 99 | 1012.4 |
| 20260905101047 | 69 | 254 | 0.0 | 0.0 | 0.00 | 0.00 | 0.00 | 99 | 1012.6 |
| 20260905100544 | 69 | 254 | 0.0 | 0.0 | 0.00 | 0.00 | 0.00 | 99 | 1012.3 |
| 20260905100043 | 70 | 250 | 0.0 | 0.0 | 0.00 | 0.00 | 0.00 | 99 | 1012.4 |
| 20260905095538 | 69 | 273 | 0.0 | 0.0 | 0.00 | 0.00 | 0.00 | 99 | 1012.5 |
| 20260905095033 | 69 | 273 | 0.0 | 0.0 | 0.00 | 0.00 | 0.00 | 99 | 1012.5 |
| 20260905094528 | 69 | 275 | 0.0 | 0.0 | 0.00 | 0.00 | 0.00 | 99 | 1012.3 |
| 20260905094027 | 69 | 276 | 0.0 | 0.0 | 0.00 | 0.00 | 0.00 | 99 | 1012.4 |
| 20260905093522 | 69 | 276 | 0.0 | 0.0 | 0.00 | 0.00 | 0.00 | 99 | 1012.3 |
| 20260905093019 | 69 | 277 | 0.0 | 0.0 | 0.00 | 0.00 | 0.00 | 99 | 1012.6 |
| 20260905092519 | 70 | 280 | 0.0 | 0.0 | 0.00 | 0.00 | 0.00 | 99 | 1012.3 |
| 20260905092015 | 70 | 263 | 0.0 | 0.0 | 0.00 | 0.00 | 0.00 | 99 | 1012.1 |
| 20260905091513 | 70 | 261 | 0.0 | 0.0 | 0.00 | 0.00 | 0.00 | 99 | 1012.1 |
| 20260905091008 | 70 | 265 | 0.0 | 0.0 | 0.00 | 0.00 | 0.00 | 99 | 1012.1 |
| 20260905090503 | 70 | 308 | 0.0 | 0.0 | 0.00 | 0.00 | 0.00 | 99 | 1012.3 |
| 20260905090002 | 70 | 261 | 0.0 | 0.0 | 0.00 | 0.00 | 0.00 | 99 | 1012.2 |
| 20260905085501 | 70 | 261 | 0.0 | 0.0 | 0.00 | 0.00 | 0.00 | 99 | 1012.3 |
| 20260905084957 | 70 | 270 | 0.0 | 0.0 | 0.00 | 0.00 | 0.00 | 99 | 1012.2 |
| 20260905084457 | 70 | 258 | 0.0 | 0.0 | 0.00 | 0.00 | 0.00 | 99 | 1012.3 |
| 20260905083952 | 70 | 258 | 0.0 | 0.0 | 0.00 | 0.00 | 0.00 | 99 | 1012.4 |
| 20260905083447 | 70 | 266 | 0.0 | 0.0 | 0.00 | 0.00 | 0.00 | 99 | 1012.2 |
| 20260905082943 | 70 | 255 | 0.0 | 0.0 | 0.00 | 0.00 | 0.00 | 99 | 1012.3 |
| 20260905082439 | 70 | 255 | 0.0 | 0.0 | 0.00 | 0.00 | 0.00 | 99 | 1012.2 |
| 20260905081934 | 70 | 260 | 0.0 | 0.0 | 0.00 | 0.00 | 0.00 | 99 | 1012.3 |
| 20260905081434 | 70 | 260 | 0.0 | 0.0 | 0.00 | 0.00 | 0.00 | 99 | 1012.3 |
| 20260905080932 | 70 | 269 | 0.0 | 0.0 | 0.00 | 0.00 | 0.00 | 99 | 1012.3 |
| 20260905080427 | 70 | 270 | 0.0 | 0.0 | 0.00 | 0.00 | 0.00 | 99 | 1012.3 |
| 20260905075926 | 70 | 257 | 0.0 | 0.0 | 0.00 | 0.00 | 0.00 | 99 | 1012.4 |
| 20260905075421 | 70 | 255 | 0.0 | 0.0 | 0.00 | 0.00 | 0.00 | 99 | 1012.4 |
| 20260905074920 | 70 | 248 | 0.0 | 0.0 | 0.00 | 0.00 | 0.00 | 99 | 1012.4 |
| 20260905074416 | 70 | 250 | 0.0 | 0.0 | 0.00 | 0.00 | 0.00 | 99 | 1012.7 |
| 20260905073911 | 70 | 259 | 0.0 | 0.0 | 0.00 | 0.00 | 0.00 | 99 | 1012.7 |
| 20260905073406 | 70 | 259 | 0.0 | 0.0 | 0.00 | 0.00 | 0.00 | 99 | 1012.7 |